This is the latest recevied weather packets stored in our database for station/object VA2RBQ-7. If no packets are shown the sender has not sent any weather packets the latest 10 day(s).
| Time | Temp. | Humidity | Pressure | Rain* | Wind** | Luminosity | Snow |
|---|---|---|---|---|---|---|---|
| 1788215337 | 7.78° C | 68% | 1019.1 hPa | 0.76 mm | - | - | - |
| 1788215034 | 7.78° C | 68% | 1019.1 hPa | 0.76 mm | - | - | - |
| 1788214732 | 7.78° C | 68% | 1019.1 hPa | 0.76 mm | - | - | - |
| 1788214429 | 8.33° C | 68% | 1019.1 hPa | 0.76 mm | - | - | - |
| 1788214127 | 8.33° C | 68% | 1019.1 hPa | 0.76 mm | - | - | - |
| 1788213824 | 9.44° C | 68% | 1019.1 hPa | 0.76 mm | - | - | - |
| 1788213521 | 8.89° C | 68% | 1019.1 hPa | 0.76 mm | - | - | - |
| 1788213221 | 9.44° C | 68% | 1019 hPa | 0.76 mm | - | - | - |
| 1788212916 | 9.44° C | 68% | 1019.2 hPa | 0.76 mm | - | - | - |
| 1788212311 | 9.44° C | 68% | 1019 hPa | 0.76 mm | - | - | - |
| 1788212008 | 9.44° C | 68% | 1019 hPa | 0.76 mm | - | - | - |
| 1788211706 | 8.89° C | 68% | 1018.9 hPa | 0.76 mm | - | - | - |
| 1788211403 | 8.89° C | 68% | 1018.9 hPa | 0.76 mm | - | - | - |
| 1788211101 | 9.44° C | 68% | 1018.9 hPa | 0.76 mm | - | - | - |
| 1788210798 | 9.44° C | 68% | 1018.9 hPa | 0.76 mm | - | - | - |
| 1788210495 | 9.44° C | 68% | 1018.9 hPa | 0.76 mm | - | - | - |
| 1788210193 | 8.89° C | 68% | 1018.8 hPa | 0.76 mm | - | - | - |
| 1788209890 | 8.89° C | 68% | 1018.7 hPa | 0.76 mm | - | - | - |
| 1788209588 | 8.89° C | 68% | 1018.7 hPa | 0.76 mm | - | - | - |
| 1788209286 | 9.44° C | 68% | 1018.6 hPa | 0.76 mm | - | - | - |
| 1788208982 | 10° C | 68% | 1018.6 hPa | 0.76 mm | - | - | - |
| 1788208680 | 9.44° C | 67% | 1018.6 hPa | 0.76 mm | - | - | - |
| 1788208377 | 9.44° C | 67% | 1018.7 hPa | 0.76 mm | - | - | - |
| 1788208075 | 9.44° C | 67% | 1018.6 hPa | 0.76 mm | - | - | - |
| 1788207772 | 8.89° C | 67% | 1018.6 hPa | 0.76 mm | - | - | - |
* Rain since midnight (hover to see other rain measurements)
** Current wind speed in m/s (hover to see current wind gust speed)